{"data":{"norad_id":27848,"epoch":"2026-05-24T23:20:28.326048Z","epoch_age_seconds":70693,"freshness":"FRESH","line1":"1 27848U 03031J   26144.97255007  .00000197  00000+0  10563-3 0  9992","line2":"2 27848  98.6769 153.5547 0008197 271.8870  88.1369 14.23606459188073","mean_motion":14.23606459,"eccentricity":0.0008197,"inclination_deg":98.6769,"raan_deg":153.5547,"arg_perigee_deg":271.887,"mean_anomaly_deg":88.1369,"bstar":0.00010563,"rev_number":18807,"period_min":101.1515500577,"perigee_km":807.28706761932,"apogee_km":819.07651564632,"semimajor_km":7191.3187916328,"source":"CELESTRAK","updated_at":"2026-05-25T13:38:25.485627Z"}}